Weather reports worldwide

Advertisment
Manschnow, Germany (10396): temperature & dewpoint: 18.06.2018 11:00:00 - 24.06.2018 11:00:00 (CEST)Manschnow, Germany (10396): temperature 5cm & temperature -5cm: 18.06.2018 11:00:00 - 24.06.2018 11:00:00 (CEST)Manschnow, Germany (10396): temperature -20cm & temperature -100cm: 18.06.2018 11:00:00 - 24.06.2018 11:00:00 (CEST)Manschnow, Germany (10396): wind speed & gusts: 18.06.2018 11:00:00 - 24.06.2018 11:00:00 (CEST)Manschnow, Germany (10396): wind direction: 18.06.2018 11:00:00 - 24.06.2018 11:00:00 (CEST)Manschnow, Germany (10396): reduced air pressure: 18.06.2018 11:00:00 - 24.06.2018 11:00:00 (CEST)Manschnow, Germany (10396): visibility: 18.06.2018 11:00:00 - 24.06.2018 11:00:00 (CEST)Manschnow, Germany (10396): sunshine duration: 18.06.2018 11:00:00 - 24.06.2018 11:00:00 (CEST)Manschnow, Germany (10396): precipitation: 18.06.2018 11:00:00 - 24.06.2018 11:00:00 (CEST)
Date & Time tt [°C] td [°C] tt 5cm [°C] tt -5cm [°C] tt -20cm [°C] tt -100cm [°C] ff [km/h] ff [kn] fx [km/h] fx [kn] dd ppp [hPa] vv [km] sd [min] rr [mm]
24.06.2018 11:00:00 13,5 12,3 13,8 19,6 19,3 18,6 6 4 24 13 WNW 1017,8 - 0 1,2
24.06.2018 10:00:00 14,8 11,4 16,7 19,8 19,1 18,6 16 9 30 16 W 1017,5 - 2 0,0
24.06.2018 09:00:00 14,7 11,3 15,8 18,5 19,1 18,6 19 10 31 17 WNW 1017,3 - 0 0,0
24.06.2018 08:00:00 13,8 11,3 14,3 17,6 19,2 18,6 15 8 26 14 WNW 1017,2 - 0 0,0
24.06.2018 07:00:00 13,1 11,5 13,3 17,2 19,3 18,6 14 8 24 13 W 1017,1 - 0 0,0
24.06.2018 06:00:00 12,9 11,7 12,8 17,1 19,5 18,7 11 6 23 12 W 1017,1 - 0 0,0
24.06.2018 05:00:00 12,8 11,4 12,7 17,2 19,7 18,7 13 7 21 12 W 1017,2 - 0 0,0
24.06.2018 04:00:00 12,9 11,2 12,6 17,4 19,9 18,7 10 5 16 9 W 1017,4 - 0 0,0
24.06.2018 03:00:00 13,2 11,3 12,9 17,7 20,1 18,7 11 6 19 10 W 1017,7 - 0 0,0
24.06.2018 02:00:00 13,4 11,3 13,4 17,9 20,3 18,7 8 5 17 9 W 1018,0 - 0 0,0
24.06.2018 01:00:00 13,4 11,3 13,3 18,2 20,5 18,7 11 6 24 13 W 1018,1 - 0 0,0
24.06.2018 00:00:00 13,8 11,1 13,6 18,6 20,8 18,7 16 9 25 13 W 1018,2 - 0 0,0
23.06.2018 23:00:00 14,1 11,0 13,9 19,1 21,0 18,7 17 9 27 15 W 1018,1 - 0 0,0
23.06.2018 22:00:00 14,6 10,8 14,3 19,7 21,3 18,7 19 10 29 15 W 1017,8 - 0 0,0
23.06.2018 21:00:00 15,1 9,9 14,8 20,3 21,4 18,8 12 7 26 14 W 1017,5 - 1 0,0
23.06.2018 20:00:00 15,7 9,8 15,2 21,4 21,5 18,8 16 9 33 18 WNW 1017,4 - 8 0,0
23.06.2018 19:00:00 16,7 8,5 16,5 22,8 21,4 18,8 17 9 43 23 WNW 1017,1 - 41 0,0
23.06.2018 18:00:00 19,4 8,3 21,5 23,1 21,3 18,8 14 8 29 16 NW 1016,7 - 16 0,0
23.06.2018 17:00:00 18,1 8,3 18,7 23,3 21,1 18,8 10 5 24 13 WNW 1017,0 - 14 0,0
23.06.2018 16:00:00 17,3 9,5 19,4 22,6 20,9 18,8 10 5 36 20 W 1017,1 - 0 0,0
23.06.2018 15:00:00 17,4 8,9 18,2 23,6 20,6 18,8 16 9 39 21 WNW 1017,2 - 6 0,0
23.06.2018 14:00:00 18,5 8,6 21,4 24,1 20,2 18,8 14 8 34 18 WNW 1017,3 - 12 0,0
23.06.2018 13:00:00 17,9 9,9 22,0 22,7 19,8 18,8 22 12 35 19 WNW 1017,6 - 18 0,0
23.06.2018 12:00:00 15,0 9,2 16,1 20,9 19,6 18,8 19 10 34 18 WNW 1017,8 - 1 0,0
23.06.2018 11:00:00 14,2 8,3 15,4 20,6 19,4 18,9 22 12 40 22 W 1017,8 - 16 0,0
23.06.2018 10:00:00 13,5 7,7 14,6 18,4 19,4 18,9 21 12 37 20 WNW 1018,2 - 0 0,0
23.06.2018 09:00:00 13,3 6,4 14,0 18,3 19,4 18,9 22 12 44 24 WNW 1018,0 - 6 0,0
23.06.2018 08:00:00 13,4 6,5 14,8 17,1 19,5 18,9 22 12 40 22 W 1018,0 - 2 0,0
23.06.2018 07:00:00 12,3 6,8 12,2 16,7 19,7 18,9 16 9 38 21 W 1018,0 - 0 0,0
23.06.2018 06:00:00 12,4 7,3 12,2 16,9 19,9 18,9 18 10 44 24 W 1018,0 - 0 0,0
23.06.2018 05:00:00 12,5 8,2 12,3 17,1 20,1 18,9 20 11 37 20 W 1017,8 - 0 0,0
23.06.2018 04:00:00 12,5 8,9 12,3 17,4 20,3 18,9 21 11 42 23 W 1017,8 - 0 0,0
23.06.2018 03:00:00 13,6 8,7 13,4 17,7 20,6 18,9 18 10 35 19 W 1017,7 - 0 0,0
23.06.2018 02:00:00 14,0 8,1 13,7 17,8 20,9 18,9 21 11 32 17 W 1017,9 - 0 0,0
23.06.2018 01:00:00 13,8 7,4 13,2 17,8 21,2 18,9 16 9 25 14 W 1018,1 - 0 0,0
23.06.2018 00:00:00 11,9 7,9 10,6 18,3 21,6 18,9 9 5 15 8 W 1018,1 - 0 0,0
22.06.2018 23:00:00 12,0 8,3 10,7 19,1 21,9 19,0 7 4 16 9 W 1017,7 - 0 0,0
22.06.2018 22:00:00 14,0 8,4 12,8 20,2 22,2 19,0 9 5 15 8 WSW 1017,4 - 0 0,0
22.06.2018 21:00:00 15,0 8,9 14,1 21,4 22,4 19,0 8 4 16 9 SSW 1016,9 - 33 0,0
22.06.2018 20:00:00 16,7 7,8 17,7 22,6 22,4 19,0 5 3 17 9 S 1016,8 - 45 0,0
22.06.2018 19:00:00 16,7 8,1 16,9 23,1 22,4 19,0 7 4 29 16 WNW 1017,1 - 18 0,0
22.06.2018 18:00:00 16,8 7,0 17,2 24,9 22,2 19,0 11 6 29 16 NNW 1017,0 - 13 0,0
22.06.2018 17:00:00 18,5 6,0 20,4 26,2 21,7 19,0 12 6 27 14 W 1016,5 - 30 0,0
22.06.2018 16:00:00 17,3 7,0 19,8 26,1 21,2 19,0 12 6 26 14 W 1016,4 - 48 0,0
22.06.2018 15:00:00 17,8 7,9 22,2 23,7 20,8 19,0 16 9 30 16 W 1016,5 - 30 0,0
22.06.2018 14:00:00 15,1 6,9 15,9 21,9 20,6 19,0 10 6 27 14 W 1016,5 - 3 0,0
22.06.2018 13:00:00 14,9 8,1 16,7 22,4 20,3 19,0 16 9 35 19 W 1016,4 - 19 0,0
22.06.2018 12:00:00 15,2 9,0 19,4 20,5 20,0 19,0 21 11 41 22 W 1016,3 - 8 0,0
22.06.2018 11:00:00 13,9 7,4 15,9 20,2 19,8 19,0 16 9 35 19 WSW 1016,0 - 8 0,0
22.06.2018 10:00:00 13,2 7,1 14,4 18,9 19,7 19,0 17 9 34 19 W 1015,8 - 2 0,0
22.06.2018 09:00:00 12,9 7,6 15,0 17,9 19,7 19,0 18 10 32 18 WSW 1015,5 - 10 0,0
22.06.2018 08:00:00 11,6 6,8 12,1 16,6 19,8 19,0 18 10 32 17 W 1015,3 - 0 0,0
22.06.2018 07:00:00 11,1 7,1 11,4 16,1 20,0 19,0 17 9 29 16 WSW 1015,1 - 8 0,0
22.06.2018 06:00:00 10,6 7,1 10,9 15,5 20,3 19,0 13 7 30 16 WSW 1015,2 - 23 0,0
22.06.2018 05:00:00 9,2 6,8 8,1 15,4 20,7 19,0 9 5 24 13 SW 1015,4 - 0 0,0
22.06.2018 04:00:00 10,4 6,5 9,2 15,8 21,1 19,0 15 8 31 17 W 1015,4 - 0 0,0
22.06.2018 03:00:00 10,6 6,7 9,4 16,3 21,5 19,0 19 10 31 17 W 1015,5 - 0 0,0
22.06.2018 02:00:00 10,3 6,4 9,1 16,8 22,0 19,0 16 9 34 18 W 1015,3 - 0 0,0
22.06.2018 01:00:00 11,2 6,2 10,2 17,4 22,4 19,0 23 12 36 19 W 1015,4 - 0 0,0
22.06.2018 00:00:00 11,4 5,9 10,4 18,2 22,9 19,0 19 10 36 20 W 1015,6 - 0 0,0
21.06.2018 23:00:00 11,9 6,2 10,7 19,2 23,4 19,0 15 8 22 12 W 1015,6 - 0 0,0
21.06.2018 22:00:00 12,5 6,9 12,0 20,0 23,8 19,0 8 4 33 18 WNW 1015,2 - 12 0,0
21.06.2018 21:00:00 14,1 6,5 13,4 21,1 24,3 19,0 21 11 50 27 WNW 1014,4 - 26 0,0
21.06.2018 20:00:00 15,5 7,1 16,1 22,1 24,6 18,9 23 12 46 25 WNW 1013,5 - 33 0,0
21.06.2018 19:00:00 16,2 7,2 16,9 22,9 25,0 18,9 27 14 47 26 W 1012,9 - 50 0,0
21.06.2018 18:00:00 16,0 10,0 16,0 23,4 25,4 18,9 22 12 39 21 W 1012,3 - 15 0,0
21.06.2018 17:00:00 13,4 11,6 13,2 24,7 25,8 18,9 12 7 45 24 WSW 1012,3 - 0 0,8
21.06.2018 16:00:00 13,7 9,7 12,4 27,7 25,9 18,9 35 19 55 30 W 1011,9 - 4 0,0
21.06.2018 15:00:00 17,6 12,6 19,2 29,9 25,8 18,9 20 11 58 31 NW 1010,0 - 12 0,0
21.06.2018 14:00:00 20,9 14,2 23,3 32,0 25,3 18,9 34 18 77 42 WNW 1007,1 - 34 0,0
21.06.2018 13:00:00 28,8 14,9 31,5 31,3 24,8 18,9 22 12 41 22 WSW 1005,9 - 33 0,0
21.06.2018 12:00:00 27,1 14,4 28,4 30,8 24,3 18,9 21 11 34 18 SW 1007,0 - 34 0,0
21.06.2018 11:00:00 26,4 15,5 28,3 29,5 23,7 18,9 15 8 31 17 WSW 1007,9 - 32 0,0
21.06.2018 10:00:00 26,1 15,2 28,9 28,6 23,2 18,9 20 11 28 15 SSW 1009,1 - 59 0,0
21.06.2018 09:00:00 24,9 15,2 27,2 25,7 22,9 18,9 14 8 22 12 SW 1010,2 - 48 0,0
21.06.2018 08:00:00 23,4 15,3 24,9 23,6 22,9 18,9 11 6 19 11 SW 1011,0 - 51 0,0
21.06.2018 07:00:00 20,0 16,2 21,2 21,8 23,0 18,9 5 3 8 4 SSW 1011,5 - 60 0,0
21.06.2018 06:00:00 16,8 15,2 16,7 20,7 23,3 18,9 5 3 8 4 SSE 1011,9 - 23 0,0
21.06.2018 05:00:00 15,7 14,9 14,8 20,9 23,6 18,9 4 2 8 4 SSE 1012,7 - 0 0,0
21.06.2018 04:00:00 16,0 14,9 14,5 21,3 23,9 18,9 5 3 6 4 SE 1013,3 - 0 0,0
21.06.2018 03:00:00 15,3 14,7 15,0 21,5 24,3 18,9 2 1 6 3 S 1014,0 - 0 0,0
21.06.2018 02:00:00 15,9 14,9 14,4 22,1 24,7 18,9 4 2 5 3 W 1014,6 - 0 0,0
21.06.2018 01:00:00 16,0 15,1 14,6 22,9 25,2 18,9 2 1 3 2 SE 1014,8 - 0 0,0
21.06.2018 00:00:00 17,6 15,7 15,3 23,8 25,6 18,9 0 0 9 5 N 1015,2 - 0 0,0
20.06.2018 23:00:00 18,8 16,4 16,6 24,9 26,0 18,9 0 0 7 4 N 1015,6 - 0 0,0
20.06.2018 22:00:00 20,8 17,0 17,9 26,2 26,3 18,9 3 2 5 3 SE 1015,9 - 0 0,0
20.06.2018 21:00:00 23,7 17,5 21,9 27,7 26,4 18,9 5 3 6 4 SE 1015,9 - 20 0,0
20.06.2018 20:00:00 25,7 16,7 25,7 28,9 26,5 18,9 5 3 11 6 SW 1016,3 - 19 0,0
20.06.2018 19:00:00 26,7 14,3 26,7 30,4 26,3 18,9 8 4 16 9 WSW 1016,9 - 33 0,0
20.06.2018 18:00:00 27,1 14,7 28,9 31,0 26,0 18,9 9 5 25 13 SW 1017,7 - 35 0,0
20.06.2018 17:00:00 26,3 14,8 28,4 31,3 25,6 18,9 9 5 23 12 S 1018,5 - 33 0,0
20.06.2018 16:00:00 26,5 15,5 29,9 30,6 25,3 18,9 13 7 23 12 SW 1019,4 - 10 0,0
20.06.2018 15:00:00 25,6 15,2 28,4 30,7 24,8 18,9 11 6 19 11 S 1020,1 - 2 0,0
20.06.2018 14:00:00 25,1 15,6 28,3 30,7 24,2 18,9 9 5 18 10 SSW 1020,8 - 6 0,0
20.06.2018 13:00:00 24,0 14,8 28,0 30,2 23,6 18,9 10 5 21 11 SW 1021,6 - 18 0,0
20.06.2018 12:00:00 23,1 14,9 27,6 27,8 23,1 18,9 7 4 15 8 SW 1022,4 - 0 0,0
20.06.2018 11:00:00 21,6 13,9 24,1 26,1 22,8 18,9 8 4 14 8 S 1022,9 - 0 0,0
20.06.2018 10:00:00 21,0 13,0 24,2 25,1 22,5 18,9 3 1 9 5 WNW 1023,3 - 1 0,0
20.06.2018 09:00:00 20,4 12,7 22,8 23,5 22,3 18,9 3 2 8 5 WNW 1023,3 - 0 0,0
20.06.2018 08:00:00 19,3 12,9 20,8 22,1 22,3 18,9 4 2 9 5 WSW 1023,6 - 13 0,0
20.06.2018 07:00:00 18,3 14,5 19,1 20,7 22,4 18,9 3 1 7 4 WSW 1023,5 - 48 0,0
20.06.2018 06:00:00 15,0 14,2 14,9 19,6 22,7 18,8 4 2 5 3 S 1023,4 - 1 0,0
20.06.2018 05:00:00 13,9 13,3 12,6 19,5 23,0 18,8 3 2 5 3 SSW 1023,2 - 0 0,0
20.06.2018 04:00:00 14,1 13,6 11,6 20,0 23,4 18,8 3 2 9 5 W 1023,0 - 0 0,0
20.06.2018 03:00:00 14,7 13,9 12,6 20,6 23,8 18,8 6 3 10 5 WNW 1022,9 - 0 0,0
20.06.2018 02:00:00 15,5 13,9 13,5 21,2 24,2 18,8 6 4 11 6 WNW 1022,7 - 0 0,0
20.06.2018 01:00:00 16,6 14,2 15,1 21,8 24,6 18,8 9 5 16 9 W 1022,4 - 0 0,0
20.06.2018 00:00:00 16,3 14,1 13,8 22,6 25,0 18,8 4 2 9 5 WSW 1022,3 - 0 0,0
19.06.2018 23:00:00 17,6 14,1 15,1 23,6 25,4 18,8 7 4 13 7 W 1021,9 - 0 0,0
19.06.2018 22:00:00 19,6 14,5 18,1 24,8 25,7 18,8 9 5 13 7 W 1021,5 - 0 0,0
19.06.2018 21:00:00 21,5 15,2 20,3 26,1 25,9 18,8 8 4 16 9 W 1020,9 - 51 0,0
19.06.2018 20:00:00 23,4 15,2 24,0 27,2 26,0 18,8 9 5 24 13 WNW 1020,8 - 45 0,0
19.06.2018 19:00:00 24,4 15,1 26,0 27,6 26,1 18,8 11 6 20 11 WNW 1020,9 - 7 0,0
19.06.2018 18:00:00 23,5 14,3 23,8 28,4 26,2 18,8 9 5 21 11 WNW 1020,7 - 0 0,0
19.06.2018 17:00:00 24,3 13,0 25,3 29,6 26,1 18,8 13 7 32 17 W 1020,6 - 1 0,0
19.06.2018 16:00:00 24,4 12,8 25,9 29,9 25,9 18,8 15 8 27 15 W 1020,5 - 0 0,0
19.06.2018 15:00:00 24,5 13,5 27,0 29,8 25,7 18,8 17 9 28 15 W 1020,4 - 0 0,0
19.06.2018 14:00:00 24,2 13,2 26,6 30,8 25,3 18,8 14 8 30 16 WNW 1020,4 - 1 0,0
19.06.2018 13:00:00 24,1 12,5 26,4 31,8 24,6 18,8 13 7 30 16 WNW 1020,3 - 27 0,0
19.06.2018 12:00:00 24,0 12,9 29,6 31,5 23,9 18,7 15 8 33 18 WNW 1020,3 - 58 0,0
19.06.2018 11:00:00 22,7 12,5 26,8 28,8 23,3 18,7 15 8 34 18 W 1020,3 - 53 0,0
19.06.2018 10:00:00 21,6 14,7 24,7 25,4 23,1 18,7 11 6 29 16 W 1020,1 - 36 0,0
19.06.2018 09:00:00 19,6 14,7 21,2 22,8 23,1 18,7 14 7 22 12 W 1020,3 - 1 0,0
19.06.2018 08:00:00 17,4 15,3 17,7 22,0 23,2 18,7 10 6 32 18 W 1020,3 - 0 0,0
19.06.2018 07:00:00 18,6 14,0 19,1 22,0 23,4 18,7 10 6 16 9 SW 1019,4 - 33 0,0
19.06.2018 06:00:00 17,3 13,3 16,6 21,4 23,7 18,7 8 4 11 6 WSW 1019,3 - 2 0,0
19.06.2018 05:00:00 17,2 13,1 16,8 21,5 24,0 18,7 7 4 13 7 SW 1019,0 - 0 0,0
19.06.2018 04:00:00 16,7 12,8 16,5 21,7 24,3 18,7 7 4 10 6 SW 1019,1 - 0 0,0
19.06.2018 03:00:00 15,9 12,8 14,3 22,1 24,7 18,7 6 3 11 6 S 1019,1 - 0 0,0
19.06.2018 02:00:00 16,9 12,3 15,3 22,7 25,1 18,7 9 5 11 6 SSW 1019,0 - 0 0,0
19.06.2018 01:00:00 18,6 12,6 17,7 23,7 25,4 18,7 8 4 10 6 SSW 1019,2 - 0 0,0
19.06.2018 00:00:00 19,2 12,9 18,4 24,5 25,8 18,7 6 3 10 5 SW 1019,4 - 0 0,0
18.06.2018 23:00:00 20,0 12,6 19,6 25,2 26,1 18,7 7 4 9 5 SSW 1019,4 - 0 0,0
18.06.2018 22:00:00 20,3 13,4 19,9 26,1 26,5 18,7 4 2 7 4 S 1019,0 - 0 0,0
18.06.2018 21:00:00 21,7 11,6 21,3 27,2 26,7 18,7 5 3 8 4 WSW 1018,6 - 0 0,0
18.06.2018 20:00:00 22,4 12,1 22,6 28,2 26,9 18,6 4 2 19 11 W 1018,5 - 0 0,0
18.06.2018 19:00:00 23,0 11,0 23,4 29,3 26,9 18,6 8 5 17 9 W 1018,6 - 4 0,0
18.06.2018 18:00:00 22,9 9,9 23,6 30,3 26,9 18,6 14 7 30 16 W 1018,9 - 34 0,0
18.06.2018 17:00:00 23,2 11,0 24,6 30,4 26,8 18,6 13 7 23 13 WNW 1019,0 - 0 0,0
18.06.2018 16:00:00 23,7 11,1 26,0 31,4 26,6 18,6 11 6 28 15 W 1018,9 - 17 0,0
18.06.2018 15:00:00 24,0 10,6 28,2 31,2 26,3 18,6 15 8 28 15 SW 1019,1 - 15 0,0
18.06.2018 14:00:00 23,0 11,5 25,0 32,2 25,9 18,6 13 7 27 15 W 1019,3 - 20 0,0
18.06.2018 13:00:00 22,5 11,0 24,5 32,9 25,2 18,6 16 9 28 15 WSW 1019,3 6 39 0,0
18.06.2018 12:00:00 23,0 11,0 26,2 32,4 24,5 18,6 16 8 30 16 WSW 1019,1 3,8 42 0,0
18.06.2018 11:00:00 23,5 12,8 27,9 30,7 23,9 18,6 7 4 14 8 SW 1019,1 17 54 0,0

tt = temperature
td = dewpoint
tt 5cm = temperature 5cm
tt -5cm = temperature -5cm
tt -20cm = temperature -20cm
tt -100cm = temperature -100cm
ff = wind speed
fx = gusts
dd = wind direction
ppp = reduced air pressure
vv = visibility
sd = sunshine duration
rr = precipitation

Next stations